Time,TemperatureF,DewpointF,PressureIn,WindDirection,WindDirectionDegrees,WindSpeedMPH,WindSpeedGustMPH,Humidity,HourlyPrecipIn,Conditions,Clouds,dailyrainin,SoftwareType,DateUTC
2013-05-11 00:00:00,57.1,34.1,29.88,SW,225,4.0,4.0,42,0.01,,,0.00,WUHU216HW,2013-05-11 05:00:00,
2013-05-11 00:05:00,57.1,34.1,29.88,SW,225,4.0,4.0,42,0.01,,,0.00,WUHU216HW,2013-05-11 05:05:00,
2013-05-11 00:10:00,57.1,34.1,29.88,SW,225,4.0,4.0,42,0.01,,,0.00,WUHU216HW,2013-05-11 05:10:00,
2013-05-11 00:30:00,52.2,39.2,29.90,North,0,13.4,13.4,61,0.00,,,0.00,WUHU216HW,2013-05-11 05:30:00,
2013-05-11 00:35:00,52.2,38.7,29.90,NNW,338,11.9,15.0,60,0.00,,,0.00,WUHU216HW,2013-05-11 05:35:00,
2013-05-11 00:36:00,52.2,38.7,29.90,NNW,338,11.9,15.0,60,0.00,,,0.00,WUHU216HW,2013-05-11 05:36:00,
2013-05-11 00:40:00,52.2,38.7,29.90,NNW,338,11.9,15.0,60,0.00,,,0.00,WUHU216HW,2013-05-11 05:40:00,
2013-05-11 01:00:00,50.2,38.4,29.91,North,0,8.5,8.5,64,0.00,,,0.00,WUHU216HW,2013-05-11 06:00:00,
2013-05-11 01:05:00,50.2,38.4,29.91,NW,315,12.8,12.8,64,0.00,,,0.00,WUHU216HW,2013-05-11 06:05:00,
2013-05-11 01:10:00,50.2,38.4,29.91,NW,315,12.8,12.8,64,0.00,,,0.00,WUHU216HW,2013-05-11 06:10:00,
2013-05-11 01:30:00,48.8,37.1,29.93,NNW,338,16.6,16.6,64,0.00,,,0.00,WUHU216HW,2013-05-11 06:30:00,
2013-05-11 01:35:00,49.0,37.7,29.93,NNW,338,16.6,16.6,65,0.00,,,0.00,WUHU216HW,2013-05-11 06:35:00,
2013-05-11 01:40:00,49.0,37.7,29.93,NNW,338,16.6,16.6,65,0.00,,,0.00,WUHU216HW,2013-05-11 06:40:00,
2013-05-11 02:00:00,47.0,34.2,29.93,NNW,338,9.6,9.6,61,0.00,,,0.00,WUHU216HW,2013-05-11 07:00:00,
2013-05-11 02:05:00,47.0,34.7,29.93,NNE,23,6.7,9.6,62,0.00,,,0.00,WUHU216HW,2013-05-11 07:05:00,
2013-05-11 02:10:00,47.0,34.7,29.93,NNE,23,6.7,9.6,62,0.00,,,0.00,WUHU216HW,2013-05-11 07:10:00,
2013-05-11 02:30:00,45.2,33.3,29.95,NNW,338,7.4,7.4,63,0.00,,,0.00,WUHU216HW,2013-05-11 07:30:00,
2013-05-11 02:35:00,45.2,33.0,29.95,SW,225,8.5,8.5,62,0.00,,,0.00,WUHU216HW,2013-05-11 07:35:00,
2013-05-11 02:40:00,45.2,33.0,29.95,SW,225,8.5,8.5,62,0.00,,,0.00,WUHU216HW,2013-05-11 07:40:00,
2013-05-11 03:00:00,43.0,30.1,29.96,NNW,338,7.4,7.4,60,0.00,,,0.00,WUHU216HW,2013-05-11 08:00:00,
2013-05-11 03:05:00,42.8,29.9,29.96,NW,315,6.7,7.4,60,0.00,,,0.00,WUHU216HW,2013-05-11 08:05:00,
2013-05-11 03:10:00,42.8,29.9,29.96,NW,315,6.7,6.7,60,0.00,,,0.00,WUHU216HW,2013-05-11 08:10:00,
2013-05-11 03:30:00,41.6,27.9,29.97,NNW,338,9.2,9.2,58,0.00,,,0.00,WUHU216HW,2013-05-11 08:30:00,
2013-05-11 03:35:00,41.6,27.9,29.97,NNW,338,8.9,9.2,58,0.00,,,0.00,WUHU216HW,2013-05-11 08:35:00,
2013-05-11 03:40:00,41.6,27.9,29.97,NNW,338,8.9,9.2,58,0.00,,,0.00,WUHU216HW,2013-05-11 08:40:00,
2013-05-11 04:00:00,40.9,28.1,29.98,NNW,338,8.5,8.5,60,0.00,,,0.00,WUHU216HW,2013-05-11 09:00:00,
2013-05-11 04:05:00,40.9,28.1,29.98,NNW,338,8.1,8.5,60,0.00,,,0.00,WUHU216HW,2013-05-11 09:05:00,
2013-05-11 04:10:00,40.9,28.1,29.98,NNW,338,8.1,8.5,60,0.00,,,0.00,WUHU216HW,2013-05-11 09:10:00,
2013-05-11 04:30:00,40.3,28.7,29.99,NNW,338,8.5,8.5,63,0.00,,,0.00,WUHU216HW,2013-05-11 09:30:00,
2013-05-11 04:35:00,40.1,28.5,29.99,NNW,338,8.5,8.5,63,0.00,,,0.00,WUHU216HW,2013-05-11 09:35:00,
2013-05-11 04:40:00,40.1,28.5,29.99,NNW,338,8.5,8.5,63,0.00,,,0.00,WUHU216HW,2013-05-11 09:40:00,
2013-05-11 05:00:00,39.8,28.2,29.99,NNW,338,13.0,13.0,63,0.00,,,0.00,WUHU216HW,2013-05-11 10:00:00,
2013-05-11 05:05:00,39.8,28.2,29.99,NNW,338,10.1,13.0,63,0.00,,,0.00,WUHU216HW,2013-05-11 10:05:00,
2013-05-11 05:06:00,39.8,28.2,29.99,NNW,338,10.1,13.0,63,0.00,,,0.00,WUHU216HW,2013-05-11 10:06:00,
2013-05-11 05:10:00,39.8,28.2,29.99,NNW,338,10.1,10.1,63,0.00,,,0.00,WUHU216HW,2013-05-11 10:10:00,
2013-05-11 05:30:00,39.2,28.0,30.00,North,0,12.8,12.8,64,0.00,,,0.00,WUHU216HW,2013-05-11 10:30:00,
2013-05-11 05:35:00,39.2,28.0,30.00,NNW,338,8.1,12.8,64,0.00,,,0.00,WUHU216HW,2013-05-11 10:35:00,
2013-05-11 05:36:00,39.2,28.0,30.00,NNW,338,8.1,12.8,64,0.00,,,0.00,WUHU216HW,2013-05-11 10:36:00,
2013-05-11 05:40:00,39.2,28.0,30.00,NNW,338,8.1,12.8,64,0.00,,,0.00,WUHU216HW,2013-05-11 10:40:00,
2013-05-11 06:00:00,39.2,28.4,30.02,NW,315,9.8,9.8,65,0.00,,,0.00,WUHU216HW,2013-05-11 11:00:00,
2013-05-11 06:05:00,39.2,28.4,30.02,NNW,338,5.8,9.8,65,0.00,,,0.00,WUHU216HW,2013-05-11 11:05:00,
2013-05-11 06:10:00,39.2,28.4,30.02,NNW,338,5.8,7.6,65,0.00,,,0.00,WUHU216HW,2013-05-11 11:10:00,
2013-05-11 06:30:00,39.8,28.9,30.03,NNW,338,6.7,6.7,65,0.00,,,0.00,WUHU216HW,2013-05-11 11:30:00,
2013-05-11 06:35:00,39.8,28.9,30.03,NW,315,8.3,8.3,65,0.00,,,0.00,WUHU216HW,2013-05-11 11:35:00,
2013-05-11 06:40:00,39.8,28.9,30.03,NW,315,8.3,8.3,65,0.00,,,0.00,WUHU216HW,2013-05-11 11:40:00,
2013-05-11 07:00:00,40.5,30.0,30.04,NW,315,4.3,4.3,66,0.00,,,0.00,WUHU216HW,2013-05-11 12:00:00,
2013-05-11 07:05:00,40.5,29.6,30.04,NW,315,7.6,7.6,65,0.00,,,0.00,WUHU216HW,2013-05-11 12:05:00,
2013-05-11 07:10:00,40.5,29.6,30.04,NW,315,7.6,7.6,65,0.00,,,0.00,WUHU216HW,2013-05-11 12:10:00,
2013-05-11 07:30:00,41.8,30.1,30.04,NNW,338,9.6,9.6,63,0.00,,,0.00,WUHU216HW,2013-05-11 12:30:00,
2013-05-11 07:35:00,41.8,30.1,30.04,NNW,338,9.6,9.6,63,0.00,,,0.00,WUHU216HW,2013-05-11 12:35:00,
2013-05-11 07:40:00,41.8,30.1,30.04,NNW,338,9.6,9.6,63,0.00,,,0.00,WUHU216HW,2013-05-11 12:40:00,
2013-05-11 08:00:00,42.8,30.7,30.04,NNE,23,8.7,8.7,62,0.00,,,0.00,WUHU216HW,2013-05-11 13:00:00,
2013-05-11 08:05:00,42.7,30.5,30.04,North,0,7.2,8.7,62,0.00,,,0.00,WUHU216HW,2013-05-11 13:05:00,
2013-05-11 08:10:00,42.7,30.5,30.04,North,0,7.2,7.2,62,0.00,,,0.00,WUHU216HW,2013-05-11 13:10:00,
2013-05-11 08:30:00,41.8,32.4,30.05,WNW,293,11.4,11.4,69,0.00,,,0.00,WUHU216HW,2013-05-11 13:30:00,
2013-05-11 08:35:00,41.8,32.0,30.05,SW,225,19.2,20.1,68,0.00,,,0.00,WUHU216HW,2013-05-11 13:35:00,
2013-05-11 08:40:00,41.8,32.0,30.05,SW,225,19.2,19.2,68,0.00,,,0.00,WUHU216HW,2013-05-11 13:40:00,
2013-05-11 09:00:00,41.8,32.0,30.05,NNW,338,5.6,5.6,68,0.00,,,0.00,WUHU216HW,2013-05-11 14:00:00,
2013-05-11 09:05:00,41.8,32.0,30.05,NNW,338,10.5,10.5,68,0.00,,,0.00,WUHU216HW,2013-05-11 14:05:00,
2013-05-11 09:10:00,41.8,32.0,30.05,NNW,338,10.5,10.5,68,0.00,,,0.00,WUHU216HW,2013-05-11 14:10:00,
2013-05-11 09:30:00,42.3,31.8,30.07,North,0,15.0,15.0,66,0.00,,,0.00,WUHU216HW,2013-05-11 14:30:00,
2013-05-11 09:35:00,42.1,31.6,30.06,NNW,338,17.0,19.9,66,0.00,,,0.00,WUHU216HW,2013-05-11 14:35:00,
2013-05-11 09:40:00,42.1,31.6,30.06,NNW,338,17.0,19.9,66,0.00,,,0.00,WUHU216HW,2013-05-11 14:40:00,
2013-05-11 10:00:00,42.8,30.2,30.06,NW,315,14.8,14.8,61,0.00,,,0.00,WUHU216HW,2013-05-11 15:00:00,
2013-05-11 10:05:00,42.8,30.2,30.06,NW,315,10.5,14.8,61,0.00,,,0.00,WUHU216HW,2013-05-11 15:05:00,
2013-05-11 10:10:00,42.8,30.2,30.06,NW,315,10.5,14.8,61,0.00,,,0.00,WUHU216HW,2013-05-11 15:10:00,
2013-05-11 10:30:00,43.9,27.9,30.07,WNW,293,15.0,15.0,53,0.00,,,0.00,WUHU216HW,2013-05-11 15:30:00,
2013-05-11 10:35:00,43.9,27.9,30.07,West,270,10.3,15.0,53,0.00,,,0.00,WUHU216HW,2013-05-11 15:35:00,
2013-05-11 10:40:00,43.9,27.9,30.07,West,270,10.3,10.3,53,0.00,,,0.00,WUHU216HW,2013-05-11 15:40:00,
2013-05-11 11:00:00,46.4,27.2,30.06,NW,315,15.2,15.2,47,0.00,,,0.00,WUHU216HW,2013-05-11 16:00:00,
2013-05-11 11:05:00,46.3,27.0,30.06,NNW,338,17.4,17.4,47,0.00,,,0.00,WUHU216HW,2013-05-11 16:05:00,
2013-05-11 11:10:00,46.3,27.0,30.06,NNW,338,17.4,17.4,47,0.00,,,0.00,WUHU216HW,2013-05-11 16:10:00,
2013-05-11 11:30:00,46.4,27.7,30.06,North,0,15.0,15.0,48,0.00,,,0.00,WUHU216HW,2013-05-11 16:30:00,
2013-05-11 11:35:00,46.4,27.2,30.07,NNW,338,12.1,15.0,47,0.00,,,0.00,WUHU216HW,2013-05-11 16:35:00,
2013-05-11 11:40:00,46.4,27.2,30.07,NNW,338,12.1,15.0,47,0.00,,,0.00,WUHU216HW,2013-05-11 16:40:00,
2013-05-11 12:00:00,47.0,25.5,30.06,NNW,338,21.5,21.5,43,0.00,,,0.00,WUHU216HW,2013-05-11 17:00:00,
2013-05-11 12:05:00,47.0,25.5,30.06,NNW,338,18.6,21.5,43,0.00,,,0.00,WUHU216HW,2013-05-11 17:05:00,
2013-05-11 12:10:00,47.0,25.5,30.06,NNW,338,18.6,18.6,43,0.00,,,0.00,WUHU216HW,2013-05-11 17:10:00,
2013-05-11 12:30:00,47.2,25.1,30.07,West,270,23.0,23.0,42,0.00,,,0.00,WUHU216HW,2013-05-11 17:30:00,
2013-05-11 12:31:00,47.2,25.1,30.07,WNW,298,19.8,23.0,42,0.00,,,0.00,WUHU216HW,2013-05-11 17:31:00,
2013-05-11 12:35:00,47.2,25.1,30.07,NW,315,19.7,23.0,42,0.00,,,0.00,WUHU216HW,2013-05-11 17:35:00,
2013-05-11 12:36:00,47.2,25.1,30.07,NW,315,19.7,23.0,42,0.00,,,0.00,WUHU216HW,2013-05-11 17:36:00,
2013-05-11 12:40:00,47.2,25.1,30.07,NW,315,19.7,19.7,42,0.00,,,0.00,WUHU216HW,2013-05-11 17:40:00,
2013-05-11 13:00:00,46.6,24.1,30.08,NW,315,16.3,16.3,41,0.00,,,0.00,WUHU216HW,2013-05-11 18:00:00,
2013-05-11 13:05:00,46.6,24.1,30.08,NNW,338,16.6,16.6,41,0.00,,,0.00,WUHU216HW,2013-05-11 18:05:00,
2013-05-11 13:10:00,46.6,24.1,30.08,NNW,338,16.6,16.6,41,0.00,,,0.00,WUHU216HW,2013-05-11 18:10:00,
2013-05-11 13:30:00,47.2,25.1,30.09,NNW,338,10.3,10.3,42,0.00,,,0.00,WUHU216HW,2013-05-11 18:30:00,
2013-05-11 13:35:00,47.2,25.1,30.08,NW,315,10.1,10.3,42,0.00,,,0.00,WUHU216HW,2013-05-11 18:35:00,
2013-05-11 13:40:00,47.2,25.1,30.08,NW,315,10.1,10.1,42,0.00,,,0.00,WUHU216HW,2013-05-11 18:40:00,
2013-05-11 14:00:00,45.7,24.9,30.09,NNW,338,17.2,17.2,44,0.00,,,0.00,WUHU216HW,2013-05-11 19:00:00,
2013-05-11 14:05:00,45.7,24.9,30.09,NNE,23,14.5,17.2,44,0.00,,,0.00,WUHU216HW,2013-05-11 19:05:00,
2013-05-11 14:10:00,45.7,24.9,30.09,NNE,23,14.5,17.2,44,0.00,,,0.00,WUHU216HW,2013-05-11 19:10:00,
2013-05-11 14:30:00,45.7,24.4,30.10,NNW,338,19.2,19.2,43,0.00,,,0.00,WUHU216HW,2013-05-11 19:30:00,
2013-05-11 14:35:00,45.7,24.4,30.10,NNW,338,17.9,19.2,43,0.00,,,0.00,WUHU216HW,2013-05-11 19:35:00,
2013-05-11 14:40:00,45.7,24.4,30.10,NNW,338,17.9,19.2,43,0.00,,,0.00,WUHU216HW,2013-05-11 19:40:00,
2013-05-11 15:00:00,47.3,23.6,30.10,NNW,338,9.4,9.4,39,0.00,,,0.00,WUHU216HW,2013-05-11 20:00:00,
2013-05-11 15:05:00,47.3,24.2,30.10,North,0,21.5,21.5,40,0.00,,,0.00,WUHU216HW,2013-05-11 20:05:00,
2013-05-11 15:10:00,47.3,24.2,30.10,North,0,21.5,21.5,40,0.00,,,0.00,WUHU216HW,2013-05-11 20:10:00,
2013-05-11 15:30:00,47.0,24.4,30.09,North,0,14.3,14.3,41,0.00,,,0.00,WUHU216HW,2013-05-11 20:30:00,
2013-05-11 15:35:00,47.0,23.9,30.10,NNW,338,22.1,22.1,40,0.00,,,0.00,WUHU216HW,2013-05-11 20:35:00,
2013-05-11 15:40:00,47.0,23.9,30.10,NNW,338,22.1,22.1,40,0.00,,,0.00,WUHU216HW,2013-05-11 20:40:00,
2013-05-11 16:00:00,47.2,23.4,30.09,NNW,338,15.7,15.7,39,0.00,,,0.00,WUHU216HW,2013-05-11 21:00:00,
2013-05-11 16:05:00,47.2,23.4,30.09,North,0,16.8,16.8,39,0.00,,,0.00,WUHU216HW,2013-05-11 21:05:00,
2013-05-11 16:10:00,47.2,23.4,30.09,North,0,16.8,16.8,39,0.00,,,0.00,WUHU216HW,2013-05-11 21:10:00,
2013-05-11 16:30:00,48.6,24.7,30.09,WSW,248,11.9,11.9,39,0.00,,,0.00,WUHU216HW,2013-05-11 21:30:00,
2013-05-11 16:35:00,48.8,24.9,30.09,North,0,9.6,11.9,39,0.00,,,0.00,WUHU216HW,2013-05-11 21:35:00,
2013-05-11 16:36:00,48.8,24.9,30.09,North,0,9.6,11.9,39,0.00,,,0.00,WUHU216HW,2013-05-11 21:36:00,
2013-05-11 16:40:00,48.8,24.9,30.09,North,0,9.6,11.9,39,0.00,,,0.00,WUHU216HW,2013-05-11 21:40:00,
2013-05-11 17:00:00,48.2,24.4,30.09,NW,315,16.1,16.1,39,0.00,,,0.00,WUHU216HW,2013-05-11 22:00:00,
2013-05-11 17:05:00,48.2,24.4,30.09,NW,315,13.6,16.1,39,0.00,,,0.00,WUHU216HW,2013-05-11 22:05:00,
2013-05-11 17:10:00,48.2,24.4,30.09,NW,315,13.6,13.6,39,0.00,,,0.00,WUHU216HW,2013-05-11 22:10:00,
2013-05-11 17:30:00,49.0,24.3,30.10,North,0,13.9,13.9,38,0.00,,,0.00,WUHU216HW,2013-05-11 22:30:00,
2013-05-11 17:35:00,49.1,24.5,30.09,NNW,338,11.0,13.9,38,0.00,,,0.00,WUHU216HW,2013-05-11 22:35:00,
2013-05-11 17:40:00,49.1,24.5,30.09,NNW,338,11.0,13.9,38,0.00,,,0.00,WUHU216HW,2013-05-11 22:40:00,
2013-05-11 18:00:00,49.7,24.3,30.10,North,0,17.0,17.0,37,0.00,,,0.00,WUHU216HW,2013-05-11 23:00:00,
2013-05-11 18:05:00,49.7,24.3,30.10,NW,315,13.4,17.0,37,0.00,,,0.00,WUHU216HW,2013-05-11 23:05:00,
2013-05-11 18:10:00,49.7,24.3,30.10,NW,315,13.4,14.8,37,0.00,,,0.00,WUHU216HW,2013-05-11 23:10:00,
2013-05-11 18:30:00,49.7,24.9,30.10,NNW,338,9.4,9.4,38,0.00,,,0.00,WUHU216HW,2013-05-11 23:30:00,
2013-05-11 18:35:00,49.7,24.9,30.10,NNE,23,9.8,9.8,38,0.00,,,0.00,WUHU216HW,2013-05-11 23:35:00,
2013-05-11 18:40:00,49.7,24.9,30.10,NNE,23,9.8,9.8,38,0.00,,,0.00,WUHU216HW,2013-05-11 23:40:00,
2013-05-11 19:00:00,48.6,24.0,30.10,NNW,338,10.5,10.5,38,0.00,,,0.00,WUHU216HW,2013-05-12 00:00:00,
2013-05-11 19:05:00,48.6,24.0,30.10,NNW,338,8.3,10.5,38,0.00,,,0.00,WUHU216HW,2013-05-12 00:05:00,
2013-05-11 19:10:00,48.6,24.0,30.10,NNW,338,8.3,10.5,38,0.00,,,0.00,WUHU216HW,2013-05-12 00:10:00,
2013-05-11 19:30:00,47.2,23.4,30.11,NNW,338,21.0,21.0,39,0.00,,,0.00,WUHU216HW,2013-05-12 00:30:00,
2013-05-11 19:35:00,47.2,23.4,30.11,NW,315,13.4,21.0,39,0.00,,,0.00,WUHU216HW,2013-05-12 00:35:00,
2013-05-11 19:40:00,47.2,23.4,30.11,NW,315,13.4,21.0,39,0.00,,,0.00,WUHU216HW,2013-05-12 00:40:00,
2013-05-11 20:00:00,46.1,23.0,30.12,North,0,12.1,12.1,40,0.00,,,0.00,WUHU216HW,2013-05-12 01:00:00,
2013-05-11 20:05:00,46.1,23.0,30.12,North,0,15.0,15.0,40,0.00,,,0.00,WUHU216HW,2013-05-12 01:05:00,
2013-05-11 20:10:00,46.1,23.0,30.12,North,0,15.0,15.0,40,0.00,,,0.00,WUHU216HW,2013-05-12 01:10:00,
2013-05-11 20:30:00,44.6,23.4,30.12,NNW,338,12.8,12.8,43,0.00,,,0.00,WUHU216HW,2013-05-12 01:30:00,
2013-05-11 20:35:00,44.6,23.4,30.12,NNW,338,11.6,12.8,43,0.00,,,0.00,WUHU216HW,2013-05-12 01:35:00,
2013-05-11 20:40:00,44.6,23.4,30.12,NNW,338,11.6,12.8,43,0.00,,,0.00,WUHU216HW,2013-05-12 01:40:00,
2013-05-11 21:00:00,43.7,23.1,30.13,NNW,338,4.7,4.7,44,0.00,,,0.00,WUHU216HW,2013-05-12 02:00:00,
2013-05-11 21:05:00,43.7,23.7,30.13,North,0,5.6,5.6,45,0.00,,,0.00,WUHU216HW,2013-05-12 02:05:00,
2013-05-11 21:10:00,43.7,23.7,30.13,North,0,5.6,5.6,45,0.00,,,0.00,WUHU216HW,2013-05-12 02:10:00,
2013-05-11 21:30:00,42.8,23.9,30.14,NNW,338,6.9,6.9,47,0.00,,,0.00,WUHU216HW,2013-05-12 02:30:00,
2013-05-11 21:35:00,42.8,23.9,30.13,NNW,338,6.9,6.9,47,0.00,,,0.00,WUHU216HW,2013-05-12 02:35:00,
2013-05-11 21:40:00,42.8,23.9,30.13,NNW,338,6.9,6.9,47,0.00,,,0.00,WUHU216HW,2013-05-12 02:40:00,
2013-05-11 22:00:00,41.8,23.9,30.14,North,0,2.9,2.9,49,0.00,,,0.00,WUHU216HW,2013-05-12 03:00:00,
2013-05-11 22:05:00,41.6,23.8,30.14,NNW,338,1.8,2.9,49,0.00,,,0.00,WUHU216HW,2013-05-12 03:05:00,
2013-05-11 22:10:00,41.6,23.8,30.14,NNW,338,1.8,2.9,49,0.00,,,0.00,WUHU216HW,2013-05-12 03:10:00,
2013-05-11 22:30:00,40.5,23.3,30.14,North,0,4.7,4.7,50,0.00,,,0.00,WUHU216HW,2013-05-12 03:30:00,
2013-05-11 22:35:00,40.5,23.3,30.14,North,0,3.4,4.7,50,0.00,,,0.00,WUHU216HW,2013-05-12 03:35:00,
2013-05-11 22:40:00,40.5,23.3,30.14,North,0,3.4,3.8,50,0.00,,,0.00,WUHU216HW,2013-05-12 03:40:00,
2013-05-11 23:00:00,39.4,23.1,30.14,NNW,338,0.4,0.4,52,0.00,,,0.00,WUHU216HW,2013-05-12 04:00:00,
2013-05-11 23:01:00,39.4,23.1,30.14,NNW,338,0.7,0.7,52,0.00,,,0.00,WUHU216HW,2013-05-12 04:01:00,
2013-05-11 23:06:00,39.4,23.1,30.14,NNW,338,0.7,0.7,52,0.00,,,0.00,WUHU216HW,2013-05-12 04:06:00,
2013-05-11 23:30:00,38.5,23.7,30.14,West,270,1.8,1.8,55,0.00,,,0.00,WUHU216HW,2013-05-12 04:30:00,
2013-05-11 23:35:00,38.5,24.1,30.14,West,270,1.8,1.8,56,0.00,,,0.00,WUHU216HW,2013-05-12 04:35:00,
2013-05-11 23:40:00,38.5,24.1,30.14,West,270,1.8,1.8,56,0.00,,,0.00,WUHU216HW,2013-05-12 04:40:00,